User: anonymous   Login
Location: Unspecified
(0.0000°N, 0.0000°E)
Time: 10:51:32
(UTC+00:00)
Language:

ONEWEB-0222 - Orbit

View from above orbital plane
View from above orbital plane
View from above satellite
View from above satellite

Ground track
Ground track

The orbit is defined by the following mean orbital elements,

1 48775U          26145.38319041 +.00000000 +00000-0 +39109-3 0 00006
2 48775  87.8998 263.7288 0001636  99.2090 260.9226 13.15547218    07
Epoch (UTC): 25 May 2026 09:11:47
Eccentricity: 0.0001636
inclination: 87.8998°
perigee height: 1201 km
apogee height: 1203 km
right ascension of ascending node: 263.7288°
argument of perigee: 99.2090°
revolutions per day: 13.15547218
mean anomaly at epoch: 260.9226°

The dashed part of the orbit path shows where the satellite is in the earth's shadow,  

DLR